Fresno, CA

9:32 AM PDT on October 23, 2019 (GMT -0700)
Fresno Yosemite International

Weather History for KFAT - August, 2019

Change the Weather History Date:

Monday, August 19, 2019

  Actual Average Record
Temperature  
Mean Temperature 80 °F 81 °F  
Max Temperature 95 °F 97 °F 110 °F (2013)
Min Temperature 64 °F 66 °F 54 °F (1916)
Degree Days  
Heating Degree Days 0    
Month to date heating degree days 0  
Since 1 June heating degree days 0  
Since 1 July heating degree days 0  
Cooling Degree Days 15    
Month to date cooling degree days 374  
Year to date cooling degree days 1693  
Since 1 June cooling degree days 1456  
Growing Degree Days 30 (Base 50)    
Moisture  
Dew Point 54 °F    
Average Humidity 47    
Maximum Humidity 73    
Minimum Humidity 20    
Precipitation  
Precipitation 0.00 in 0.00 in 0.20 in (1976)
Month to date precipitation 0.00 0.00  
Year to date precipitation 9.52 7.85  
Snow  
Snow 0.00 in - - ()
Month to date snowfall 0.0  
Since 1 June snowfall 0.0  
Since 1 July snowfall 0.0  
Snow Depth 0.00 in    
Sea Level Pressure  
Sea Level Pressure 29.88 in    
Wind  
Wind Speed 8 mph (NW)    
Max Wind Speed 15 mph    
Max Gust Speed 18 mph    
Visibility 10 miles    
Events      
T = Trace of Precipitation, MM = Missing Value Source: NWS Daily Summary

Daily Weather History Graph

Daily Weather History Graph

Search for Another Location

Airport or City:

Astronomy

Aug. 19, 2019 Rise Set
Actual Time 6:19 AM PDT 7:45 PM PDT
Civil Twilight 5:51 AM PDT 8:12 PM PDT
Nautical Twilight 5:19 AM PDT 8:44 PM PDT
Astronomical Twilight 4:44 AM PDT 9:19 PM PDT
Moon 10:14 PM PDT (8/19) 10:00 AM PDT (8/19)
Length of Visible Light 14h 20m
Length of Day
13h 25m
Waning Gibbous, 84% of the Moon is Illuminated
Aug 19
Waning Gibbous
Aug 23
Last Quarter
Aug 30
New
Sep 5
First Quarter
Sep 13
Full

Hourly Weather History & Observations

Time (PDT) Temp. Heat Index Dew Point Humidity Pressure Visibility Wind Dir Wind Speed Gust Speed Precip Events Conditions
12:53 AM 72.0 °F - 51.1 °F 48% 29.85 in 10.0 mi NW 9.2 mph - N/A   Clear
1:53 AM 69.1 °F - 52.0 °F 54% 29.86 in 10.0 mi NNW 6.9 mph - N/A   Clear
2:53 AM 68.0 °F - 53.1 °F 59% 29.86 in 10.0 mi NW 8.1 mph - N/A   Clear
3:53 AM 66.9 °F - 55.0 °F 66% 29.87 in 10.0 mi NW 11.5 mph - N/A   Partly Cloudy
4:53 AM 64.9 °F - 55.0 °F 70% 29.88 in 10.0 mi NW 6.9 mph - N/A   Clear
5:53 AM 64.0 °F - 55.9 °F 75% 29.88 in 10.0 mi NW 6.9 mph - N/A   Scattered Clouds
6:53 AM 64.0 °F - 55.9 °F 75% 29.90 in 10.0 mi NW 6.9 mph - N/A   Scattered Clouds
7:53 AM 66.0 °F - 57.0 °F 73% 29.91 in 10.0 mi WNW 5.8 mph - N/A   Scattered Clouds
8:53 AM 69.1 °F - 55.9 °F 63% 29.92 in 10.0 mi WNW 3.5 mph - N/A   Mostly Cloudy
9:53 AM 72.0 °F - 55.9 °F 57% 29.94 in 10.0 mi WNW 3.5 mph - N/A   Mostly Cloudy
10:53 AM 78.1 °F - 55.9 °F 46% 29.93 in 10.0 mi West 3.5 mph - N/A   Mostly Cloudy
11:53 AM 81.0 °F 80.8 °F 55.9 °F 42% 29.92 in 10.0 mi WNW 6.9 mph - N/A   Mostly Cloudy
12:53 PM 84.9 °F 83.7 °F 55.9 °F 37% 29.91 in 10.0 mi WNW 5.8 mph - N/A   Scattered Clouds
1:53 PM 89.1 °F 86.9 °F 54.0 °F 30% 29.90 in 10.0 mi NNW 5.8 mph - N/A   Partly Cloudy
2:53 PM 91.9 °F - 51.1 °F 25% 29.88 in 10.0 mi WNW 5.8 mph - N/A   Partly Cloudy
3:53 PM 93.9 °F - 50.0 °F 22% 29.86 in 10.0 mi Variable 3.5 mph - N/A   Clear
4:53 PM 95.0 °F - 48.9 °F 21% 29.85 in 10.0 mi West 6.9 mph - N/A   Clear
5:53 PM 93.9 °F - 48.9 °F 21% 29.84 in 10.0 mi West 6.9 mph - N/A   Clear
6:53 PM 93.0 °F - 48.0 °F 21% 29.83 in 10.0 mi WNW 10.4 mph - N/A   Clear
7:53 PM 88.0 °F 86.1 °F 55.0 °F 32% 29.84 in 10.0 mi WNW 13.8 mph - N/A   Clear
8:53 PM 84.9 °F 83.3 °F 54.0 °F 34% 29.86 in 10.0 mi NW 11.5 mph - N/A   Clear
9:53 PM 81.0 °F 80.7 °F 55.0 °F 41% 29.88 in 10.0 mi NW 11.5 mph - N/A   Clear
10:53 PM 79.0 °F - 55.9 °F 45% 29.88 in 10.0 mi WNW 10.4 mph - N/A   Clear
11:53 PM 75.9 °F - 57.9 °F 54% 29.89 in 10.0 mi NW 11.5 mph - N/A   Clear